Time,TemperatureF,DewpointF,PressureIn,WindDirection,WindDirectionDegrees,WindSpeedMPH,WindSpeedGustMPH,Humidity,HourlyPrecipIn,Conditions,Clouds,dailyrainin,SoftwareType,DateUTC
2013-02-26 00:01:00,48.0,19.0,30.02,SSW,210,7.0,10.0,31,0.00,,,0.00,,2013-02-26 08:01:00,
2013-02-26 00:11:00,48.0,19.0,30.02,SSW,205,5.0,11.0,31,0.00,,,0.00,,2013-02-26 08:11:00,
2013-02-26 00:21:00,48.0,19.0,30.02,SSW,205,5.0,11.0,31,0.00,,,0.00,,2013-02-26 08:21:00,
2013-02-26 00:31:00,48.0,19.0,30.02,SSW,193,2.0,10.0,31,0.00,,,0.00,,2013-02-26 08:31:00,
2013-02-26 00:41:00,48.0,19.0,30.02,SSW,193,2.0,10.0,31,0.00,,,0.00,,2013-02-26 08:41:00,
2013-02-26 00:52:00,47.0,18.0,30.03,North,350,5.0,6.0,31,0.00,,,0.00,,2013-02-26 08:52:00,
2013-02-26 01:01:00,46.0,18.0,30.03,West,268,4.0,6.0,32,0.00,,,0.00,,2013-02-26 09:01:00,
2013-02-26 01:11:00,46.0,18.0,30.03,West,268,4.0,6.0,32,0.00,,,0.00,,2013-02-26 09:11:00,
2013-02-26 01:21:00,44.0,15.0,30.03,SW,236,6.0,7.0,30,0.00,,,0.00,,2013-02-26 09:21:00,
2013-02-26 01:31:00,43.0,13.0,30.03,SW,235,4.0,7.0,29,0.00,,,0.00,,2013-02-26 09:31:00,
2013-02-26 01:42:00,43.0,13.0,30.03,SW,235,4.0,7.0,29,0.00,,,0.00,,2013-02-26 09:42:00,
2013-02-26 01:52:00,42.0,11.0,30.03,SW,216,5.0,9.0,28,0.00,,,0.00,,2013-02-26 09:52:00,
2013-02-26 02:01:00,42.0,11.0,30.03,SW,217,3.0,5.0,28,0.00,,,0.00,,2013-02-26 10:01:00,
2013-02-26 02:11:00,42.0,11.0,30.03,SW,217,3.0,5.0,28,0.00,,,0.00,,2013-02-26 10:11:00,
2013-02-26 02:21:00,42.0,13.0,30.03,SW,217,3.0,5.0,30,0.00,,,0.00,,2013-02-26 10:21:00,
2013-02-26 02:31:00,41.0,13.0,30.03,SW,217,0.0,2.0,31,0.00,,,0.00,,2013-02-26 10:31:00,
2013-02-26 02:41:00,41.0,13.0,30.03,SW,217,0.0,2.0,31,0.00,,,0.00,,2013-02-26 10:41:00,
2013-02-26 02:52:00,40.0,10.0,30.03,SW,215,5.0,6.0,29,0.00,,,0.00,,2013-02-26 10:52:00,
2013-02-26 03:01:00,40.0,10.0,30.03,SW,215,5.0,5.0,29,0.00,,,0.00,,2013-02-26 11:01:00,
2013-02-26 03:11:00,40.0,10.0,30.03,SW,215,5.0,5.0,29,0.00,,,0.00,,2013-02-26 11:11:00,
2013-02-26 03:21:00,39.0,9.0,30.03,West,273,0.0,3.0,29,0.00,,,0.00,,2013-02-26 11:21:00,
2013-02-26 03:31:00,39.0,9.0,30.03,SW,215,0.0,0.0,29,0.00,,,0.00,,2013-02-26 11:31:00,
2013-02-26 03:41:00,39.0,9.0,30.03,SW,215,0.0,0.0,29,0.00,,,0.00,,2013-02-26 11:41:00,
2013-02-26 03:52:00,38.0,11.0,30.03,SW,236,4.0,7.0,32,0.00,,,0.00,,2013-02-26 11:52:00,
2013-02-26 04:01:00,38.0,12.0,30.03,SW,236,5.0,6.0,34,0.00,,,0.00,,2013-02-26 12:01:00,
2013-02-26 04:11:00,38.0,12.0,30.03,SW,236,5.0,6.0,34,0.00,,,0.00,,2013-02-26 12:11:00,
2013-02-26 04:22:00,39.0,12.0,30.03,SW,227,2.0,6.0,33,0.00,,,0.00,,2013-02-26 12:22:00,
2013-02-26 04:32:00,40.0,12.0,30.03,SW,227,3.0,4.0,31,0.00,,,0.00,,2013-02-26 12:32:00,
2013-02-26 04:41:00,40.0,12.0,30.03,SW,227,3.0,4.0,31,0.00,,,0.00,,2013-02-26 12:41:00,
2013-02-26 04:52:00,39.0,11.0,30.04,SW,227,0.0,0.0,31,0.00,,,0.00,,2013-02-26 12:52:00,
2013-02-26 05:01:00,38.0,11.0,30.05,SW,226,0.0,3.0,32,0.00,,,0.00,,2013-02-26 13:01:00,
2013-02-26 05:11:00,38.0,11.0,30.05,SW,226,0.0,3.0,32,0.00,,,0.00,,2013-02-26 13:11:00,
2013-02-26 05:21:00,39.0,18.0,30.04,SW,232,7.0,11.0,43,0.00,,,0.00,,2013-02-26 13:21:00,
2013-02-26 05:31:00,41.0,19.0,30.04,SW,227,8.0,11.0,41,0.00,,,0.00,,2013-02-26 13:31:00,
2013-02-26 05:42:00,41.0,19.0,30.04,SW,227,8.0,11.0,41,0.00,,,0.00,,2013-02-26 13:42:00,
2013-02-26 05:52:00,42.0,18.0,30.05,WSW,237,5.0,9.0,37,0.00,,,0.00,,2013-02-26 13:52:00,
2013-02-26 06:01:00,42.0,18.0,30.05,SW,220,8.0,12.0,37,0.00,,,0.00,,2013-02-26 14:01:00,
2013-02-26 06:11:00,42.0,18.0,30.05,SW,220,8.0,12.0,37,0.00,,,0.00,,2013-02-26 14:11:00,
2013-02-26 06:21:00,42.0,17.0,30.05,SW,226,9.0,11.0,36,0.00,,,0.00,,2013-02-26 14:21:00,
2013-02-26 06:31:00,43.0,18.0,30.05,SW,220,8.0,12.0,36,0.00,,,0.00,,2013-02-26 14:31:00,
2013-02-26 06:41:00,43.0,18.0,30.05,SW,220,8.0,12.0,36,0.00,,,0.00,,2013-02-26 14:41:00,
2013-02-26 06:52:00,43.0,18.0,30.09,WSW,240,4.0,10.0,36,0.00,,,0.00,,2013-02-26 14:52:00,
2013-02-26 07:01:00,43.0,17.0,30.10,WSW,249,4.0,10.0,34,0.00,,,0.00,,2013-02-26 15:01:00,
2013-02-26 07:11:00,43.0,17.0,30.10,WSW,249,4.0,10.0,34,0.00,,,0.00,,2013-02-26 15:11:00,
2013-02-26 07:21:00,42.0,17.0,30.10,WSW,245,4.0,6.0,36,0.00,,,0.00,,2013-02-26 15:21:00,
2013-02-26 07:31:00,42.0,16.0,30.10,WSW,244,1.0,5.0,35,0.00,,,0.00,,2013-02-26 15:31:00,
2013-02-26 07:41:00,42.0,16.0,30.10,WSW,244,1.0,5.0,35,0.00,,,0.00,,2013-02-26 15:41:00,
2013-02-26 07:52:00,43.0,15.0,30.11,NE,42,0.0,4.0,32,0.00,,,0.00,,2013-02-26 15:52:00,
2013-02-26 08:01:00,42.0,15.0,30.12,NE,43,0.0,1.0,33,0.00,,,0.00,,2013-02-26 16:01:00,
2013-02-26 08:11:00,42.0,15.0,30.12,NE,43,0.0,1.0,33,0.00,,,0.00,,2013-02-26 16:11:00,
2013-02-26 08:22:00,42.0,16.0,30.13,ESE,122,0.0,1.0,35,0.00,,,0.00,,2013-02-26 16:22:00,
2013-02-26 08:31:00,45.0,16.0,30.13,ESE,123,0.0,1.0,31,0.00,,,0.00,,2013-02-26 16:31:00,
2013-02-26 08:41:00,45.0,16.0,30.13,ESE,123,0.0,1.0,31,0.00,,,0.00,,2013-02-26 16:41:00,
2013-02-26 08:52:00,49.0,16.0,30.14,ENE,61,0.0,2.0,27,0.00,,,0.00,,2013-02-26 16:52:00,
2013-02-26 09:01:00,50.0,16.0,30.14,ENE,60,2.0,3.0,26,0.00,,,0.00,,2013-02-26 17:01:00,
2013-02-26 09:11:00,52.0,17.0,30.15,ENE,60,0.0,1.0,25,0.00,,,0.00,,2013-02-26 17:11:00,
2013-02-26 09:21:00,52.0,17.0,30.15,ENE,60,0.0,1.0,25,0.00,,,0.00,,2013-02-26 17:21:00,
2013-02-26 09:32:00,53.0,17.0,30.14,ENE,67,0.0,2.0,24,0.00,,,0.00,,2013-02-26 17:32:00,
2013-02-26 09:41:00,53.0,17.0,30.14,ENE,67,0.0,2.0,24,0.00,,,0.00,,2013-02-26 17:41:00,
2013-02-26 09:52:00,54.0,16.0,30.15,East,80,1.0,3.0,22,0.00,,,0.00,,2013-02-26 17:52:00,
2013-02-26 10:01:00,55.0,16.0,30.15,NNE,28,1.0,5.0,21,0.00,,,0.00,,2013-02-26 18:01:00,
2013-02-26 10:12:00,55.0,16.0,30.15,NNE,28,1.0,5.0,21,0.00,,,0.00,,2013-02-26 18:12:00,
2013-02-26 10:21:00,57.0,16.0,30.15,NNE,28,0.0,2.0,20,0.00,,,0.00,,2013-02-26 18:21:00,
2013-02-26 10:31:00,58.0,17.0,30.15,East,80,1.0,5.0,20,0.00,,,0.00,,2013-02-26 18:31:00,
2013-02-26 10:42:00,58.0,17.0,30.15,East,80,1.0,5.0,20,0.00,,,0.00,,2013-02-26 18:42:00,
2013-02-26 10:52:00,59.0,17.0,30.15,ENE,59,3.0,7.0,19,0.00,,,0.00,,2013-02-26 18:52:00,
2013-02-26 11:01:00,59.0,17.0,30.15,ENE,74,4.0,7.0,19,0.00,,,0.00,,2013-02-26 19:01:00,
2013-02-26 11:11:00,59.0,17.0,30.15,ENE,74,4.0,7.0,19,0.00,,,0.00,,2013-02-26 19:11:00,
2013-02-26 11:22:00,61.0,16.0,30.15,East,86,3.0,10.0,17,0.00,,,0.00,,2013-02-26 19:22:00,
2013-02-26 11:31:00,61.0,16.0,30.15,East,84,3.0,9.0,17,0.00,,,0.00,,2013-02-26 19:31:00,
2013-02-26 11:41:00,61.0,16.0,30.15,East,84,3.0,9.0,17,0.00,,,0.00,,2013-02-26 19:41:00,
2013-02-26 11:52:00,61.0,16.0,30.15,ESE,123,4.0,13.0,17,0.00,,,0.00,,2013-02-26 19:52:00,
2013-02-26 12:01:00,61.0,16.0,30.15,ESE,115,6.0,11.0,17,0.00,,,0.00,,2013-02-26 20:01:00,
2013-02-26 12:11:00,61.0,16.0,30.15,ESE,115,6.0,11.0,17,0.00,,,0.00,,2013-02-26 20:11:00,
2013-02-26 12:21:00,61.0,16.0,30.14,SE,134,1.0,12.0,17,0.00,,,0.00,,2013-02-26 20:21:00,
2013-02-26 12:31:00,62.0,17.0,30.13,SE,141,1.0,10.0,17,0.00,,,0.00,,2013-02-26 20:31:00,
2013-02-26 12:41:00,62.0,17.0,30.13,SE,141,1.0,10.0,17,0.00,,,0.00,,2013-02-26 20:41:00,
2013-02-26 12:52:00,62.0,15.0,30.12,ESE,113,6.0,12.0,16,0.00,,,0.00,,2013-02-26 20:52:00,
2013-02-26 13:01:00,62.0,15.0,30.12,ESE,115,2.0,10.0,16,0.00,,,0.00,,2013-02-26 21:01:00,
2013-02-26 13:11:00,62.0,15.0,30.12,ESE,115,2.0,10.0,16,0.00,,,0.00,,2013-02-26 21:11:00,
2013-02-26 13:21:00,63.0,16.0,30.11,NE,51,6.0,13.0,16,0.00,,,0.00,,2013-02-26 21:21:00,
2013-02-26 13:31:00,63.0,16.0,30.11,NNE,24,4.0,10.0,16,0.00,,,0.00,,2013-02-26 21:31:00,
2013-02-26 13:41:00,63.0,16.0,30.11,NNE,24,4.0,10.0,16,0.00,,,0.00,,2013-02-26 21:41:00,
2013-02-26 13:51:00,64.0,17.0,30.10,ENE,78,6.0,11.0,16,0.00,,,0.00,,2013-02-26 21:51:00,
2013-02-26 14:01:00,64.0,17.0,30.10,NNE,25,1.0,9.0,16,0.00,,,0.00,,2013-02-26 22:01:00,
2013-02-26 14:11:00,64.0,17.0,30.09,East,83,3.0,9.0,16,0.00,,,0.00,,2013-02-26 22:11:00,
2013-02-26 14:21:00,64.0,17.0,30.09,East,83,3.0,9.0,16,0.00,,,0.00,,2013-02-26 22:21:00,
2013-02-26 14:31:00,64.0,15.0,30.10,ENE,65,3.0,7.0,15,0.00,,,0.00,,2013-02-26 22:31:00,
2013-02-26 14:41:00,64.0,15.0,30.10,ENE,65,3.0,7.0,15,0.00,,,0.00,,2013-02-26 22:41:00,
2013-02-26 14:51:00,65.0,16.0,30.09,East,99,5.0,9.0,15,0.00,,,0.00,,2013-02-26 22:51:00,
2013-02-26 15:01:00,65.0,16.0,30.08,ESE,115,1.0,6.0,15,0.00,,,0.00,,2013-02-26 23:01:00,
2013-02-26 15:21:00,65.0,16.0,30.08,East,87,5.0,11.0,15,0.00,,,0.00,,2013-02-26 23:21:00,
2013-02-26 15:31:00,64.0,15.0,30.08,East,80,3.0,7.0,15,0.00,,,0.00,,2013-02-26 23:31:00,
2013-02-26 15:41:00,64.0,15.0,30.08,East,80,3.0,7.0,15,0.00,,,0.00,,2013-02-26 23:41:00,
2013-02-26 15:52:00,64.0,15.0,30.09,ENE,72,7.0,11.0,15,0.00,,,0.00,,2013-02-26 23:52:00,
2013-02-26 16:01:00,64.0,15.0,30.08,ENE,69,5.0,11.0,15,0.00,,,0.00,,2013-02-27 00:01:00,
2013-02-26 16:21:00,63.0,15.0,30.08,ESE,103,4.0,10.0,15,0.00,,,0.00,,2013-02-27 00:21:00,
2013-02-26 16:31:00,63.0,13.0,30.08,ESE,112,6.0,10.0,14,0.00,,,0.00,,2013-02-27 00:31:00,
2013-02-26 16:41:00,63.0,13.0,30.08,ESE,112,6.0,10.0,14,0.00,,,0.00,,2013-02-27 00:41:00,
2013-02-26 16:52:00,63.0,15.0,30.08,ESE,113,3.0,5.0,15,0.00,,,0.00,,2013-02-27 00:52:00,
2013-02-26 17:01:00,62.0,12.0,30.08,ENE,64,5.0,11.0,14,0.00,,,0.00,,2013-02-27 01:01:00,
2013-02-26 17:11:00,62.0,12.0,30.08,ENE,64,5.0,11.0,14,0.00,,,0.00,,2013-02-27 01:11:00,
2013-02-26 17:21:00,61.0,11.0,30.08,ENE,71,1.0,6.0,14,0.00,,,0.00,,2013-02-27 01:21:00,
2013-02-26 17:31:00,61.0,11.0,30.08,SE,130,3.0,6.0,14,0.00,,,0.00,,2013-02-27 01:31:00,
2013-02-26 17:41:00,61.0,11.0,30.08,SE,130,3.0,6.0,14,0.00,,,0.00,,2013-02-27 01:41:00,
2013-02-26 17:52:00,60.0,12.0,30.09,SE,137,4.0,7.0,15,0.00,,,0.00,,2013-02-27 01:52:00,
2013-02-26 18:01:00,59.0,11.0,30.09,SE,146,4.0,6.0,15,0.00,,,0.00,,2013-02-27 02:01:00,
2013-02-26 18:12:00,59.0,11.0,30.09,SE,146,4.0,6.0,15,0.00,,,0.00,,2013-02-27 02:12:00,
2013-02-26 18:21:00,56.0,10.0,30.10,SSE,156,5.0,7.0,16,0.00,,,0.00,,2013-02-27 02:21:00,
2013-02-26 18:31:00,54.0,10.0,30.11,SE,143,6.0,9.0,17,0.00,,,0.00,,2013-02-27 02:31:00,
2013-02-26 18:41:00,54.0,10.0,30.11,SE,143,6.0,9.0,17,0.00,,,0.00,,2013-02-27 02:41:00,
2013-02-26 18:52:00,53.0,9.0,30.12,SE,144,8.0,11.0,17,0.00,,,0.00,,2013-02-27 02:52:00,
2013-02-26 19:01:00,53.0,9.0,30.12,SE,144,8.0,10.0,17,0.00,,,0.00,,2013-02-27 03:01:00,
2013-02-26 19:11:00,53.0,9.0,30.12,SE,144,8.0,10.0,17,0.00,,,0.00,,2013-02-27 03:11:00,
2013-02-26 19:21:00,52.0,9.0,30.13,SE,133,8.0,11.0,17,0.00,,,0.00,,2013-02-27 03:21:00,
2013-02-26 19:31:00,52.0,9.0,30.14,SE,144,9.0,11.0,17,0.00,,,0.00,,2013-02-27 03:31:00,
2013-02-26 19:41:00,52.0,9.0,30.14,SE,144,9.0,11.0,17,0.00,,,0.00,,2013-02-27 03:41:00,
2013-02-26 19:52:00,51.0,8.0,30.14,SE,140,11.0,13.0,17,0.00,,,0.00,,2013-02-27 03:52:00,
2013-02-26 20:01:00,51.0,8.0,30.14,SE,140,11.0,13.0,17,0.00,,,0.00,,2013-02-27 04:01:00,
2013-02-26 20:11:00,51.0,8.0,30.14,SE,140,11.0,13.0,17,0.00,,,0.00,,2013-02-27 04:11:00,
2013-02-26 20:21:00,51.0,8.0,30.14,SE,141,10.0,13.0,17,0.00,,,0.00,,2013-02-27 04:21:00,
2013-02-26 20:31:00,51.0,8.0,30.15,SE,146,11.0,14.0,17,0.00,,,0.00,,2013-02-27 04:31:00,
2013-02-26 20:41:00,51.0,8.0,30.15,SE,146,11.0,14.0,17,0.00,,,0.00,,2013-02-27 04:41:00,
2013-02-26 20:51:00,51.0,8.0,30.16,SE,140,9.0,11.0,17,0.00,,,0.00,,2013-02-27 04:51:00,
2013-02-26 21:01:00,51.0,8.0,30.16,SSE,167,9.0,11.0,17,0.00,,,0.00,,2013-02-27 05:01:00,
2013-02-26 21:11:00,51.0,8.0,30.16,SSE,167,9.0,11.0,17,0.00,,,0.00,,2013-02-27 05:11:00,
2013-02-26 21:21:00,49.0,6.0,30.17,SSE,164,10.0,12.0,17,0.00,,,0.00,,2013-02-27 05:21:00,
2013-02-26 21:32:00,49.0,6.0,30.17,SSE,167,10.0,13.0,17,0.00,,,0.00,,2013-02-27 05:32:00,
2013-02-26 21:41:00,49.0,6.0,30.17,SSE,167,10.0,13.0,17,0.00,,,0.00,,2013-02-27 05:41:00,
2013-02-26 21:52:00,49.0,6.0,30.17,SSE,161,10.0,14.0,17,0.00,,,0.00,,2013-02-27 05:52:00,
2013-02-26 22:02:00,49.0,6.0,30.17,SSE,166,10.0,13.0,17,0.00,,,0.00,,2013-02-27 06:02:00,
2013-02-26 22:11:00,49.0,6.0,30.17,SSE,166,10.0,13.0,17,0.00,,,0.00,,2013-02-27 06:11:00,
2013-02-26 22:21:00,49.0,7.0,30.18,SE,146,1.0,11.0,18,0.00,,,0.00,,2013-02-27 06:21:00,
2013-02-26 22:32:00,48.0,7.0,30.18,SE,146,0.0,0.0,18,0.00,,,0.00,,2013-02-27 06:32:00,
2013-02-26 22:41:00,48.0,7.0,30.18,SE,146,0.0,0.0,18,0.00,,,0.00,,2013-02-27 06:41:00,
2013-02-26 22:52:00,47.0,6.0,30.20,SE,146,0.0,0.0,18,0.00,,,0.00,,2013-02-27 06:52:00,
2013-02-26 23:01:00,45.0,5.0,30.20,SE,146,0.0,0.0,19,0.00,,,0.00,,2013-02-27 07:01:00,
2013-02-26 23:11:00,45.0,5.0,30.20,SE,146,0.0,0.0,19,0.00,,,0.00,,2013-02-27 07:11:00,
2013-02-26 23:21:00,44.0,6.0,30.21,SE,146,0.0,3.0,20,0.00,,,0.00,,2013-02-27 07:21:00,
2013-02-26 23:31:00,43.0,6.0,30.21,SE,146,0.0,1.0,21,0.00,,,0.00,,2013-02-27 07:31:00,
2013-02-26 23:41:00,43.0,6.0,30.21,SE,146,0.0,1.0,21,0.00,,,0.00,,2013-02-27 07:41:00,
2013-02-26 23:52:00,42.0,4.0,30.22,SE,146,0.0,0.0,20,0.00,,,0.00,,2013-02-27 07:52:00,